Location: Brolles
(48.4752°N, 2.6917°E)
Time: 11:23:43
(UTC+00:00)

Daily predictions for brighter satellites

Satellite Brightness Start Highest point End
(mag) Time Altitude Azimuth Time Altitude Azimuth Time Altitude Azimuth
MOS 1 4.4 20:06:21 10° SSE 20:12:01 78° ENE 20:17:41 10° NNW
Cosmos 1378 4.2 20:13:12 10° SSW 20:16:20 42° WNW 20:19:29 10° N
Cosmos 1110 Rocket 4.4 20:11:18 10° NNW 20:16:32 54° ENE 20:21:42 10° SE
SeaSat 1 4.1 20:13:03 10° S 20:17:19 29° WSW 20:21:36 10° NW
Cosmos 1726 2.7 20:15:35 10° N 20:18:26 31° ENE 20:21:16 10° SE
USA 306 2.7 20:16:41 10° WNW 20:20:26 80° NNE 20:24:21 10° ESE
USA 59 Rocket 1.6 20:18:00 10° NNW 20:21:03 24° NE 20:24:52 10° E
Lacrosse 4 Rocket 3.7 20:19:26 10° N 20:21:40 14° NE 20:23:53 10° ENE
Tsikada Rocket 4.1 20:17:40 10° S 20:23:52 87° E 20:30:12 10° N
Cosmos 1943 3.3 20:20:56 10° S 20:26:27 55° ESE 20:31:59 10° NE
IRS-1C Rocket 4.1 20:22:18 10° SSE 20:27:33 75° ENE 20:32:49 10° NNW
USA 276 3.9 20:26:51 10° WSW 20:27:42 12° SW 20:28:34 10° SSW
Cosmos 1842 Rocket 3.8 20:23:55 10° S 20:28:12 51° E 20:32:29 10° NNE
Okean 3 Rocket 3.6 20:23:58 10° N 20:28:20 65° ENE 20:32:40 10° SSE
Spot 2 Rocket 4.0 20:25:23 10° SE 20:30:09 45° ENE 20:34:57 10° N
Resurs 01 Rocket 3.5 20:26:51 10° SSW 20:30:44 29° W 20:34:38 10° NNW
ISS -3.3 20:27:39 10° WNW 20:30:55 48° SSW 20:33:56 11° SE
IRS-1A Rocket 4.3 20:25:41 10° SSE 20:31:17 76° ENE 20:36:49 10° NNW
ARGOS Delta rocket 4.1 20:27:50 10° SSE 20:32:44 59° ENE 20:37:24 10° N
Cosmos 1340 4.1 20:37:03 10° NNE 20:39:41 21° ENE 20:42:01 12° ESE
Okean O Rocket 3.5 20:37:11 10° SSW 20:40:58 28° W 20:44:48 10° NW
SPOT 3 Rocket 4.0 20:36:08 10° SE 20:40:59 49° ENE 20:45:57 10° N
Sich 1 4.0 20:37:27 10° N 20:41:27 33° ENE 20:44:54 13° SE
USA 307 0.6 20:42:48 10° NW 20:43:27 35° NNW 20:43:27 35° NNW
Cosmos 2221 3.6 20:40:35 10° SSW 20:44:44 47° WNW 20:48:57 10° N
Meteor 1-27 Rocket 4.3 20:41:07 10° SSE 20:46:07 37° E 20:51:11 10° NNE
USA 281 3.7 20:43:30 11° SE 20:49:39 50° NE 20:55:58 10° NNW
Ariane Rocket 3.1 20:48:21 12° SSE 20:53:03 68° ENE 20:58:07 10° N
GEOS 3 Rocket 4.4 20:54:19 10° ENE 20:58:44 28° ESE 21:03:04 10° S
Terra 1.8 20:59:36 12° SSE 21:03:58 85° WSW 21:08:43 10° NNW
Cosmos 1340 Rocket 3.4 21:03:13 16° SSE 21:05:59 38° E 21:09:42 10° NNE
MOS 1 Rocket 3.6 21:02:02 14° SSE 21:06:27 73° ENE 21:11:49 10° N
Cosmos 1452 Rocket 3.9 21:01:34 10° NNW 21:06:45 62° WSW 21:11:26 13° S
Cosmos 1743 Rocket 3.8 21:03:26 10° N 21:07:46 55° ENE 21:10:56 18° SSE
USA 234 4.5 21:05:24 10° ENE 21:11:30 43° N 21:17:35 10° WNW
NOSS 2-1 (C) 3.9 21:08:46 10° NNW 21:12:25 55° NE 21:16:11 16° ESE
Lacrosse 5 rocket 3.7 21:08:50 10° WNW 21:12:27 26° N 21:16:00 10° NE
Helios 1B 4.5 21:09:03 10° NNE 21:13:23 74° ESE 21:17:40 10° S
ARIANE 5 R/B 4.4 21:12:44 12° ESE 21:15:30 20° ENE 21:18:39 10° NNE
ERS-1 Rocket 3.5 21:12:27 10° S 21:17:18 57° W 21:22:17 10° NNW
Cosmos 1408 Rocket 3.8 21:13:05 10° NNW 21:17:33 70° W 21:21:17 14° S
Meteor 2-10 4.1 21:14:29 10° NNW 21:20:03 87° ENE 21:24:13 17° SSE
USA 245 3.9 21:22:29 14° SSW 21:23:51 24° W 21:25:52 10° NW
Cosmos 2279 Rocket 4.5 21:18:36 10° NNW 21:24:40 58° W 21:30:42 10° S
SL-8 R/B 3.6 21:20:08 10° W 21:24:54 87° S 21:29:41 10° E
Cosmos 1626 3.6 21:24:36 16° E 21:25:01 16° E 21:27:06 10° NE
Spot 1 4.0 21:21:00 10° NNE 21:25:03 59° ESE 21:28:04 18° S
Nadezhda 4 Rocket 4.0 21:21:16 13° S 21:26:48 69° E 21:33:02 10° NNE
Cosmos 614 Rocket 4.4 21:25:40 18° S 21:29:17 45° ESE 21:34:14 10° NE
Meteor 1-19 Rocket 4.3 21:28:39 10° S 21:34:33 87° ESE 21:40:18 10° NNE
Cosmos 1603 4.0 21:30:44 10° SW 21:36:23 72° WNW 21:42:08 10° NNE
Cosmos 1833 Rocket 4.2 21:35:25 17° ESE 21:36:50 18° E 21:40:32 10° ENE
Okean 1 3.8 21:33:59 11° SSW 21:37:41 56° WNW 21:41:32 10° N
Cosmos 2369 Rocket 4.3 21:35:06 10° WNW 21:38:46 18° W 21:42:26 10° SW
Cosmos 1151 Rocket 3.0 21:37:10 21° S 21:39:59 71° E 21:44:20 10° NNE
Cosmos 1975 3.1 21:37:32 10° N 21:41:24 51° ENE 21:43:09 28° SE
Meteor 1-11 Rocket 4.5 21:37:07 10° NNW 21:42:35 50° W 21:47:34 13° SSW
Cosmos 1328 Rocket 4.3 21:45:12 26° SE 21:46:51 36° E 21:50:48 10° NNE
Meteor 2-17 Rocket 4.4 21:41:44 13° S 21:47:11 87° W 21:53:16 10° N
Cosmos 1302 Rocket 4.2 21:44:22 10° NNW 21:49:30 63° WSW 21:52:42 23° S
Cosmos 1536 4.5 21:46:41 10° NNW 21:50:00 27° W 21:53:08 11° SSW
Cosmos 1992 Rocket 4.1 21:44:57 10° NNW 21:50:13 71° ENE 21:53:10 26° SE
Cosmos 1726 4.4 21:49:38 10° NW 21:51:19 14° W 21:53:01 10° WSW
USA 306 4.1 21:50:43 10° W 21:53:51 24° SW 21:54:47 22° SSW
Cosmos 1656 3.7 21:49:24 10° NNW 21:54:53 69° ENE 21:58:06 25° SE
Cosmos 1766 4.2 21:54:41 10° N 21:58:07 33° ENE 21:59:18 26° ESE
Cosmos 1805 3.2 21:56:18 10° NNW 22:00:02 73° W 22:01:33 33° S
Lacrosse 4 Rocket 1.4 21:56:33 10° NNW 22:00:38 74° NE 22:02:26 33° SE
Cosmos 1733 4.3 21:58:10 10° NNW 22:01:21 33° W 22:03:12 20° SW
Cosmos 1470 Rocket 4.3 21:58:09 10° N 22:02:23 41° ENE 22:04:11 27° SE
H-2A R/B 3.5 22:02:16 24° ESE 22:04:05 35° ENE 22:07:58 10° N
Cosmos 2026 Rocket 4.0 22:02:10 23° S 22:06:18 73° E 22:12:30 10° NNE
IRIDIUM 104 4.3 22:01:14 10° N 22:06:30 87° E 22:09:22 28° S
Cosmos 1470 4.3 22:05:20 10° NNE 22:08:14 21° ENE 22:09:19 19° E
Cosmos 1633 Rocket 3.0 22:05:12 10° N 22:09:39 74° E 22:11:28 35° SSE
USA 59 Rocket 0.4 22:06:57 10° NW 22:10:52 57° SW 22:13:07 31° SSE
NOSS 3-3 (A) 3.9 22:08:04 21° SSW 22:11:36 55° ESE 22:17:43 10° NE
Landsat 5 4.2 22:07:59 10° N 22:11:37 45° WNW 22:14:26 16° SW
Cosmos 1666 Rocket 3.4 22:07:23 10° N 22:11:44 87° WSW 22:13:32 35° S
Cosmos 1627 Rocket 4.5 22:07:49 23° S 22:11:59 79° E 22:18:17 10° NNE
NOSS 2-1 (E) 4.0 22:09:02 10° NW 22:12:58 54° SW 22:15:08 31° S
Orbus 7S? 4.1 22:13:47 32° SE 22:13:47 32° SE 22:16:18 10° ENE
Cosmos 1340 4.1 22:11:02 10° NW 22:13:55 26° W 22:15:25 19° SW
IRIDIUM 114 4.4 22:10:23 10° N 22:15:38 79° W 22:18:30 27° S
Cosmos 220 Rocket 4.1 22:18:09 21° SSW 22:20:57 74° WNW 22:25:17 10° NNE
CZ-2C R/B 3.6 22:17:21 10° NNE 22:21:52 70° ESE 22:23:38 35° S
Cosmos 44 Rocket 4.0 22:17:32 10° NNW 22:22:22 49° NE 22:25:15 22° ESE
Cosmos 1818 3.5 22:21:17 18° SSW 22:25:20 74° SE 22:30:50 10° NE
NOSS 2-1 (D) 4.4 22:21:47 10° NW 22:25:35 41° SW 22:27:17 30° S
NOSS 3-4 (A) 4.4 22:20:58 10° NW 22:27:29 53° NE 22:34:26 12° ESE
Cosmos 1933 Rocket 4.4 22:23:25 10° N 22:27:31 38° ENE 22:29:00 29° ESE
NOSS 3-4 (C) 4.4 22:21:04 10° NW 22:27:34 53° NE 22:34:34 12° ESE
ALOS 2 3.7 22:26:21 24° ESE 22:28:10 34° ENE 22:32:08 10° N
BREEZE-M DEB (TANK) 4.1 22:31:06 28° ESE 22:31:06 28° ESE 22:34:59 10° ENE
Cosmos 1697 Rocket 3.0 22:26:51 10° NNW 22:32:26 59° ENE 22:35:28 27° SE
USA 281 4.0 22:30:22 21° SSW 22:34:15 40° WSW 22:40:25 10° NW
Cosmos 1553 Rocket 3.9 22:30:50 10° N 22:36:56 77° E 22:39:56 32° SSE
GEOS 3 Rocket 4.0 22:31:54 10° NE 22:37:04 65° NW 22:42:07 10° SW
Meteor 2-4 Rocket 4.1 22:33:19 20° SSW 22:37:30 65° WNW 22:43:26 10° N
Cosmos 1674 2.8 22:37:26 45° ESE 22:37:39 46° E 22:41:01 10° NNE
Cosmos 1607 4.4 22:37:13 31° SSE 22:39:42 44° ESE 22:45:48 10° NE
Cosmos 1980 Rocket 3.3 22:35:20 10° NNW 22:40:38 37° NE 22:44:37 16° ESE
NOSS 3-3 (C) 3.7 22:38:08 19° SSW 22:42:14 81° SE 22:48:41 10° NE
Terra 4.4 22:40:55 10° WSW 22:42:17 11° W 22:43:40 10° WNW
MINOTAUR 4 R/B 3.9 22:41:22 10° N 22:44:18 58° WNW 22:44:36 54° WSW
Cosmos 1066 Rocket 4.3 22:41:55 30° S 22:44:57 88° E 22:50:52 10° NNE
Cosmos 2285 Rocket 4.5 22:44:29 31° SSE 22:46:51 43° ESE 22:52:48 10° NNE
Cosmos 407 Rocket 4.3 22:49:43 31° SE 22:50:58 35° ESE 22:55:43 10° NE
ARIANE 5 R/B 3.0 22:50:12 36° SSW 22:51:35 51° W 22:55:48 10° NNW
Lacrosse 5 rocket 3.1 22:47:57 10° NW 22:51:45 31° NNE 22:55:25 10° E
USA 234 4.1 22:47:34 10° E 22:53:49 49° NNE 23:00:05 10° WNW
Cosmos 1908 3.6 22:50:26 10° N 22:53:52 44° ENE 22:54:20 41° E
Cosmos 1269 Rocket 4.3 22:54:33 23° SW 22:57:50 66° WNW 23:03:07 10° NNE
Cosmos 1626 3.3 22:57:25 25° WSW 22:58:20 29° WNW 23:01:13 10° N
CZ-3 Stage 3 4.4 22:44:19 10° WSW 23:01:48 27° SSW 23:03:03 26° S
Cosmos 2251 Rocket 4.1 23:01:47 34° SE 23:03:05 40° ESE 23:08:00 10° NE
SL-8 R/B 3.5 23:02:35 10° W 23:07:21 79° SSW 23:10:29 21° ESE
Cosmos 1707 2.4 23:09:21 69° SSE 23:09:41 77° E 23:13:20 10° NNE
BREEZE-M DEB (TANK) 3.1 23:08:38 10° WNW 23:14:08 15° ESE 23:15:21 10° ESE
Cosmos 1441 Rocket 3.4 23:10:36 10° N 23:14:07 52° ENE 23:14:30 49° E
SL-16 R/B 4.3 23:10:18 10° N 23:14:38 22° NE 23:18:56 10° E
Cosmos 2266 Rocket 4.0 23:12:28 36° SSE 23:15:08 71° E 23:21:23 10° NNE
Spot 4 4.0 23:13:59 42° SSW 23:15:26 63° WSW 23:20:11 10° NNW
Cosmos 1842 3.2 23:15:46 54° SW 23:16:22 65° W 23:20:02 10° N
Cosmos 1655 Rocket 4.4 23:15:56 33° SSE 23:18:38 54° E 23:24:50 10° NNE
Cosmos 1833 Rocket 2.7 23:17:03 29° SW 23:20:03 79° WNW 23:25:43 10° NNE
Cosmos 2082 Rocket 2.9 23:23:06 32° SE 23:24:35 38° ESE 23:29:49 10° NE
Cosmos 1515 Rocket 4.4 23:28:42 30° WSW 23:30:16 42° WNW 23:34:24 10° N
Cosmos 1300 3.6 23:27:02 10° N 23:30:20 34° ENE 23:30:52 32° E
KORONAS-FOTON 4.3 23:30:14 42° WSW 23:30:53 48° WNW 23:34:29 10° N
Meteor 1-22 Rocket 4.1 23:26:30 10° N 23:31:51 79° ENE 23:33:54 39° SSE
Cosmos 2228 Rocket 3.8 23:31:44 35° ESE 23:32:42 40° E 23:36:56 10° NNE
SL-08 ROCKET BODY 4.4 23:33:08 36° S 23:35:51 88° E 23:42:05 10° N
Meteor 1-15 Rocket 4.1 23:30:25 10° N 23:36:06 86° ENE 23:38:17 39° SSE
H-2A R/B 2.4 23:33:09 10° NNE 23:37:31 54° E 23:38:23 46° SE
Lacrosse 4 Rocket 3.6 23:36:21 10° WNW 23:38:21 13° WSW 23:38:21 13° WSW
Cosmos 1733 Rocket 3.7 23:34:29 10° N 23:38:41 45° ENE 23:39:58 35° ESE
H-2A R/B 3.9 23:38:15 24° WSW 23:39:04 26° W 23:42:41 10° NW
Cosmos 1869 Rocket 3.6 23:37:15 10° NNW 23:41:34 65° W 23:42:30 50° SSW
Cosmos 1470 3.8 23:40:23 10° NNW 23:43:40 30° W 23:43:59 29° WSW
Cosmos 1400 Rocket 2.8 23:54:09 59° SSE 23:54:41 69° E 23:58:40 10° NNE
